Location: Goll?ig?dem
(16.6773°N, 80.7332°E)
Time: 23:56:40
(UTC+00:00)

Cosmos 1484 Rocket - Pass Details

Date: 19 May 2025
Orbit: 451 x 488 km, 97.6° (Epoch: 18 June)

Event Time Altitude Azimuth Distance (km) Brightness Sun altitude
Rises 23:11:21 0° 22° (NNE) 2,470 6.9 -12.6°
Reaches altitude 10° 23:13:30 10° 30° (NNE) 1,590 6.1 -12.1°
Maximum altitude 23:16:41 38° 100° (E) 709 3.9 -11.4°
Drops below altitude 10° 23:19:51 10° 170° (S) 1,576 5.0 -10.8°
Sets 23:21:57 0° 178° (S) 2,445 5.9 -10.3°
